TimePST,TemperatureF,Dew PointF,Humidity,Sea Level PressureIn,VisibilityMPH,Wind Direction,Wind SpeedMPH,Gust SpeedMPH,PrecipitationIn,Events,Conditions,WindDirDegrees,DateUTC
12:53 AM,8.1,-0.0,70,30.50,10.0,South,11.5,-,N/A,,Clear,180,2013-01-21 08:53:00
1:53 AM,6.1,-0.9,73,30.51,10.0,South,11.5,-,N/A,,Clear,170,2013-01-21 09:53:00
2:53 AM,5.0,-2.0,73,30.51,10.0,South,12.7,-,N/A,,Clear,170,2013-01-21 10:53:00
3:53 AM,3.0,-2.9,76,30.53,10.0,South,11.5,-,N/A,,Clear,180,2013-01-21 11:53:00
4:53 AM,3.0,-2.9,76,30.58,10.0,South,11.5,-,N/A,,Clear,170,2013-01-21 12:53:00
6:53 AM,1.0,-5.1,75,30.65,10.0,South,13.8,-,N/A,,Clear,170,2013-01-21 14:53:00
7:53 AM,3.9,-2.9,73,30.65,10.0,South,13.8,-,N/A,,Clear,180,2013-01-21 15:53:00
8:53 AM,14.0,3.0,62,30.62,10.0,South,12.7,-,N/A,,Clear,170,2013-01-21 16:53:00
9:53 AM,21.9,8.1,55,30.61,10.0,Calm,Calm,-,N/A,,Clear,0,2013-01-21 17:53:00
10:53 AM,28.0,10.0,47,30.57,10.0,SSE,5.8,-,N/A,,Clear,150,2013-01-21 18:53:00
11:53 AM,33.1,9.0,37,30.51,10.0,Calm,Calm,-,N/A,,Clear,0,2013-01-21 19:53:00
12:53 PM,39.0,10.9,32,30.44,10.0,Calm,Calm,-,N/A,,Clear,0,2013-01-21 20:53:00
1:53 PM,41.0,9.0,27,30.43,10.0,Calm,Calm,-,N/A,,Clear,0,2013-01-21 21:53:00
2:53 PM,42.1,12.9,31,30.42,10.0,Calm,Calm,-,N/A,,Clear,0,2013-01-21 22:53:00
3:53 PM,39.9,12.0,32,30.43,10.0,Calm,Calm,-,N/A,,Clear,0,2013-01-21 23:53:00
4:53 PM,19.9,10.0,65,30.53,10.0,Calm,Calm,-,N/A,,Clear,0,2013-01-22 00:53:00
5:53 PM,18.0,9.0,68,30.57,10.0,South,9.2,-,N/A,,Clear,180,2013-01-22 01:53:00
6:53 PM,19.9,12.0,71,30.56,10.0,South,13.8,-,N/A,,Clear,170,2013-01-22 02:53:00
7:53 PM,14.0,8.1,77,30.58,10.0,South,11.5,-,N/A,,Clear,170,2013-01-22 03:53:00
8:53 PM,14.0,7.0,74,30.53,10.0,North,-9999.0,-,N/A,,Clear,0,2013-01-22 04:53:00
9:53 PM,12.0,5.0,73,30.50,10.0,South,13.8,-,N/A,,Clear,170,2013-01-22 05:53:00
10:53 PM,10.0,3.9,76,30.50,10.0,South,15.0,-,N/A,,Clear,170,2013-01-22 06:53:00
11:53 PM,9.0,3.0,77,30.48,10.0,South,10.4,-,N/A,,Clear,180,2013-01-22 07:53:00